SL-8 R/B

基本信息
目录编号:
5051
目录名称:
SL-8 R/B
国际标识:
1971-020B
轨道中心:
EARTH
物体状态:
在轨
发射日期:
1971-03-18 UTC
国别:
俄罗斯(独联体) (CIS)
轨道信息
数据来源: 国际轨道数据
星历时间: 2026-09-13T05:25:25+0800
半长轴: 7355.79km
偏心率: 0.0042281
轨道倾角: 65.814°
近地点辐角: 47.638°
升交点赤经: 77.221°
平近点角: 312.825°
近地点: 946.551km
远地点: 1008.755km
周期: 104.641分钟
每日圈数: 13.76128
详细信息
发射场:
PKMTR
轨道高度:
LEO
数据来源:
AOE Integration Group
参考系:
TEME
时间系统:
UTC
历元类型:
SGP4
2D轨道图
3D轨道图
轨道高度分析图
轨道倾角分析图
轨道综合分析图
查看轨道综合分析图